[[{"header":{"parameterUnit":"m.s-1","parameterCategory":1,"la1":30.2991,"la2":30.254,"lo1":-89.0895,"lo2":-89.0444,"dy":0.0017,"dx":0.0017,"nx":28,"ny":28,"refTime":"2023-08-26T21:00:00:Z","depth":0,"parameterNumber":2,"parameterNumberName":"U-component_of_WINDS"},"data":[0,0,0,0,0,0,0,0,0,0,0,0,0,0,0,0,0,0,0,0,0,0,0,0,0,0,0,0,0,0,0,0,0,0,0,0,0,0,0,0,0,0,0,0,0,0,0,0,0,0,0,0,0,0,0,0,0,0,1.4827,1.4829,0,1.501,1.5012,1.5014,1.506,1.5059,1.5057,1.5056,1.5245,1.5251,1.5257,0,0,0,0,0,0,0,0,0,0,0,0,0,1.4519,1.4524,1.4827,1.4829,1.4832,1.501,1.5012,1.5015,1.506,1.5059,1.5057,1.5056,1.5243,1.525,1.5257,0,0,0,0,0,0,0,0,0,0,0,0,0,1.4672,1.4526,1.4827,1.4876,1.4882,1.5009,1.5012,1.5015,1.506,1.5059,1.5057,1.5055,1.524,1.5249,1.5258,1.535,0,0,1.5286,1.529,0,0,0,0,0,0,0,0,1.4663,1.4683,1.4866,1.4872,1.488,1.501,1.4973,1.5128,1.5061,1.4993,1.5056,1.5054,1.5168,1.5183,1.5222,1.5359,1.5367,1.5287,1.5293,1.5297,1.5299,0,0,0,0,0,0,0,1.4653,1.4676,1.4899,1.4869,1.4877,1.4889,1.4909,1.5002,1.5088,1.4998,1.5002,1.5023,1.5172,1.5213,1.5226,1.537,1.5287,1.5295,1.5301,1.5304,1.5594,1.5596,0,0,0,0,0,0,1.4633,1.4667,1.4894,1.4905,1.4765,1.4896,1.4918,1.497,1.5087,1.5103,1.5024,1.5025,1.5198,1.5216,1.5233,1.535,1.5297,1.5305,1.531,1.5592,1.5595,1.5597,0,0,0,0,0,0,1.4627,1.4653,1.4886,1.4787,1.4818,1.4903,1.4961,1.4975,1.5016,1.5107,1.5123,1.505,1.5197,1.522,1.5321,1.5357,1.5309,1.5318,1.5589,1.5593,1.5596,1.5582,0,0,0,0,0,0,1.4618,1.465,1.4686,1.4787,1.4823,1.497,1.4963,1.498,1.5031,1.5033,1.5135,1.5151,1.5197,1.5307,1.533,1.5369,1.5325,1.5587,1.5591,1.5595,1.558,1.5585,1.5589,0,0,0,0,0,1.4606,1.4674,1.4687,1.4714,1.4868,1.4972,1.4993,1.5045,1.5034,1.507,1.5129,1.5147,1.5349,1.5317,1.5343,1.5385,1.5585,1.559,1.5595,1.5578,1.5584,1.5589,0,0,0,0,0,0,1.4574,1.4689,1.4704,1.4807,1.488,1.498,1.5027,1.5049,1.5127,1.5125,1.5187,1.521,1.5307,1.5356,1.5319,1.5481,1.5467,1.5477,1.5445,1.5452,1.5456,1.5442,1.5332,0,0,0,0,0,1.4579,1.4654,1.475,1.4831,1.4867,1.4941,1.4988,1.5022,1.51,1.5131,1.5198,1.5273,1.5354,1.5405,1.5484,1.5587,1.5611,1.5629,1.5633,1.5637,1.5645,1.5705,1.5715,1.5613,1.5613,1.5613,0,0,1.459,1.4662,1.4705,1.4827,1.4887,1.4964,1.4966,1.5047,1.5105,1.5144,1.5243,1.5295,1.5383,1.5486,1.5534,1.553,1.5678,1.5643,1.5645,1.5652,1.5711,1.5721,1.5729,1.5617,1.5616,1.5616,0,0,1.4649,1.4711,1.4786,1.4847,1.4938,1.4987,1.5005,1.5103,1.5139,1.5239,1.5271,1.5341,1.5478,1.554,1.5589,1.5674,1.5694,1.5698,1.5721,1.5779,1.5787,1.5794,1.5826,1.5836,1.5706,1.5706,1.5706,0,1.4651,1.4768,1.4822,1.4902,1.4955,1.4994,1.5071,1.5128,1.524,1.5276,1.5269,1.5444,1.5506,1.5624,1.5645,1.5683,1.5707,1.5687,1.5781,1.5789,1.5797,1.5828,1.5839,1.5706,1.5706,1.5706,1.5706,0,1.4766,1.4847,1.4897,1.5005,1.5064,1.5141,1.5208,1.5262,1.5291,1.5341,1.5444,1.552,1.5616,1.5647,1.5676,1.577,1.5765,1.5769,1.5756,1.5805,1.5835,1.5847,1.5706,1.5706,1.5706,1.5706,0,0,1.481,1.4948,1.4965,1.5016,1.512,1.5184,1.5264,1.5358,1.5403,1.548,1.5549,1.5665,1.567,1.5726,1.5763,1.5813,1.5877,1.5812,1.5815,1.5822,1.5988,1.5984,1.5997,1.5891,1.5894,1.5896,1.5981,0,1.4883,1.5027,1.5079,1.5199,1.5274,1.5313,1.5383,1.5456,1.5505,1.5577,1.5631,1.5713,1.5712,1.5747,1.5798,1.5858,1.5911,1.5853,1.5958,1.5961,1.5935,1.6013,1.6009,1.6086,1.5993,1.5995,1.5996,0,1.4987,1.5065,1.5192,1.5289,1.5322,1.5385,1.5476,1.5543,1.5627,1.5659,1.5723,1.5756,1.5843,1.5825,1.5946,1.5905,1.5951,1.5987,1.5992,1.6004,1.5982,1.6028,1.6111,1.6123,1.6015,1.6013,1.6012,0,1.5007,1.5144,1.5239,1.528,1.5395,1.5438,1.5488,1.5569,1.5623,1.5703,1.5739,1.5827,1.5876,1.5944,1.6002,1.5983,1.6119,1.6104,1.6149,1.6148,1.6176,1.6174,1.6269,1.6204,1.6204,1.6204,1.6204,0,1.5083,1.5159,1.5249,1.5307,1.5395,1.5454,1.5539,1.5591,1.5664,1.5734,1.5773,1.5837,1.5908,1.5983,1.6028,1.6123,1.6144,1.6174,1.6185,1.6171,1.6167,1.6202,1.6199,1.6207,1.6206,1.6206,1.6205,0,1.512,1.5183,1.5289,1.5389,1.5417,1.5477,1.5563,1.5621,1.5672,1.576,1.5784,1.5865,1.5955,1.6019,1.6134,1.6165,1.6267,1.6277,1.6238,1.6244,1.6286,1.6281,1.6408,1.6428,1.6348,1.6349,1.6349,0,1.5165,1.5225,1.5332,1.5382,1.5432,1.551,1.5566,1.5627,1.5683,1.5783,1.583,1.5922,1.5999,1.6141,1.621,1.6299,1.6313,1.6351,1.6327,1.6311,1.6315,1.6312,1.6319,1.6355,1.6356,1.6356,1.6356,0,1.5238,1.5267,1.5345,1.5434,1.5499,1.5572,1.5646,1.5685,1.5759,1.582,1.5912,1.5972,1.6091,1.6182,1.6278,1.6331,1.6357,1.6364,1.6379,1.6365,1.6341,1.6356,1.6249,1.636,1.636,1.636,1.636,1.6359,1.5282,1.5338,1.5422,1.5508,1.557,1.5639,1.5699,1.5758,1.5836,1.5937,1.5968,1.6064,1.6148,1.628,1.6334,1.641,1.6408,1.643,1.6436,1.6441,1.6441,1.6328,1.6428,1.6428,1.6428,1.6428,1.6428,0,1.5358,1.5415,1.5493,1.5596,1.5664,1.5682,1.5765,1.5821,1.5905,1.598,1.6056,1.6162,1.6252,1.6329,1.6422,1.6469,1.6483,1.6491,1.6489,1.6501,1.6436,1.6414,1.6478,1.6478,1.6478,1.6478,1.6478,1.6478,1.5406,1.5502,1.5541,1.5668,1.5724,1.5819,1.5865,1.5929,1.599,1.6107,1.6182,1.6231,1.6308,1.6407,1.6491,1.6511,1.6544,1.655,1.6573,1.6511,1.6506,1.65,1.648,1.6556,1.6556,1.6632,1.6633,1.6633]},{"header":{"parameterUnit":"m.s-1","parameterCategory":1,"la1":30.2991,"la2":30.254,"lo1":-89.0895,"lo2":-89.0444,"dy":0.0017,"dx":0.0017,"nx":28,"ny":28,"refTime":"2023-08-26T21:00:00:Z","depth":0,"parameterNumber":3,"parameterNumberName":"V-component_of_WINDS"},"data":[0,0,0,0,0,0,0,0,0,0,0,0,0,0,0,0,0,0,0,0,0,0,0,0,0,0,0,0,0,0,0,0,0,0,0,0,0,0,0,0,0,0,0,0,0,0,0,0,0,0,0,0,0,0,0,0,0,0,2.5246,2.5245,0,2.5184,2.5184,2.5183,2.5098,2.5096,2.5095,2.5093,2.5029,2.5028,2.5028,0,0,0,0,0,0,0,0,0,0,0,0,0,2.5289,2.5289,2.5246,2.5245,2.5245,2.5185,2.5184,2.5183,2.5098,2.5096,2.5094,2.5093,2.5029,2.5028,2.5028,0,0,0,0,0,0,0,0,0,0,0,0,0,2.5253,2.5288,2.5246,2.5195,2.519,2.5185,2.5184,2.5183,2.5098,2.5096,2.5094,2.5092,2.5029,2.5028,2.5028,2.5067,0,0,2.5026,2.5026,0,0,0,0,0,0,0,0,2.5255,2.5252,2.5203,2.5198,2.5193,2.5147,2.5175,2.5144,2.5099,2.5133,2.5093,2.5091,2.5069,2.5065,2.5059,2.5064,2.5062,2.5026,2.5026,2.5025,2.5025,0,0,0,0,0,0,0,2.5258,2.5254,2.5222,2.5203,2.5196,2.5175,2.5167,2.5169,2.5114,2.513,2.5124,2.5117,2.5066,2.5059,2.5056,2.5061,2.5026,2.5025,2.5025,2.5025,2.5096,2.5099,0,0,0,0,0,0,2.5268,2.5256,2.5223,2.522,2.5219,2.5176,2.5167,2.5164,2.5114,2.5104,2.5119,2.5114,2.5061,2.5057,2.5054,2.5098,2.5025,2.5025,2.5024,2.5094,2.5097,2.5099,0,0,0,0,0,0,2.5269,2.5266,2.5226,2.5236,2.523,2.5177,2.5174,2.5163,2.5157,2.5106,2.5096,2.5123,2.506,2.5055,2.5065,2.5094,2.5025,2.5024,2.5092,2.5095,2.5098,2.5185,0,0,0,0,0,0,2.5271,2.5267,2.5282,2.5237,2.5229,2.5239,2.5175,2.5164,2.5156,2.5148,2.5106,2.5097,2.5057,2.5066,2.5064,2.5092,2.5024,2.5089,2.5093,2.5097,2.518,2.5191,2.5201,0,0,0,0,0,2.5273,2.5308,2.5283,2.528,2.5247,2.5241,2.5236,2.519,2.5159,2.5173,2.5141,2.5098,2.5091,2.5068,2.5065,2.5093,2.5087,2.5092,2.5097,2.5175,2.5189,2.5201,0,0,0,0,0,0,2.5357,2.5301,2.5273,2.5295,2.5273,2.5226,2.5243,2.5207,2.5193,2.5186,2.5129,2.512,2.5138,2.5116,2.5091,2.5129,2.5083,2.5087,2.5143,2.5156,2.5167,2.5172,2.5023,0,0,0,0,0,2.5378,2.5378,2.5329,2.5354,2.5344,2.5296,2.5291,2.5258,2.5233,2.5223,2.5191,2.5168,2.5161,2.5157,2.5147,2.5176,2.5166,2.5194,2.5205,2.5214,2.5219,2.5233,2.5245,2.5116,2.5116,2.5116,0,0,2.5422,2.5391,2.5395,2.537,2.5349,2.535,2.5289,2.5292,2.5293,2.5223,2.5232,2.5208,2.5178,2.5198,2.5205,2.5181,2.5252,2.522,2.5228,2.5228,2.5239,2.5252,2.5263,2.5119,2.5119,2.5118,0,0,2.5502,2.5479,2.5497,2.5478,2.5447,2.5415,2.542,2.5378,2.536,2.5367,2.5316,2.5315,2.5303,2.5284,2.5273,2.5348,2.5308,2.5346,2.5402,2.5417,2.5427,2.5436,2.5463,2.5474,2.5351,2.5351,2.5351,0,2.556,2.556,2.5511,2.5518,2.5509,2.5447,2.5465,2.5448,2.5416,2.5411,2.5384,2.5369,2.5344,2.5359,2.5378,2.537,2.5374,2.535,2.543,2.5438,2.5445,2.5471,2.5481,2.5356,2.5355,2.5355,2.5354,0,2.5633,2.5634,2.5652,2.5624,2.5616,2.5629,2.5582,2.558,2.5547,2.5518,2.5527,2.5495,2.5479,2.5479,2.5447,2.549,2.5476,2.544,2.5392,2.5464,2.5486,2.5496,2.5363,2.5361,2.5359,2.5358,0,0,2.5765,2.5709,2.5717,2.5704,2.5666,2.5666,2.5675,2.566,2.566,2.564,2.5647,2.5638,2.5605,2.5593,2.5558,2.5571,2.5633,2.5533,2.5532,2.5554,2.5679,2.5707,2.5719,2.5606,2.5608,2.5609,2.5682,0,2.5838,2.5853,2.5809,2.5834,2.5835,2.5776,2.5785,2.5763,2.5736,2.5732,2.5701,2.5697,2.5653,2.5645,2.5655,2.5623,2.5657,2.5617,2.5612,2.5613,2.5623,2.5731,2.576,2.583,2.569,2.5692,2.5693,0,2.5926,2.5912,2.5938,2.5899,2.5898,2.5906,2.5889,2.5886,2.5859,2.5839,2.5826,2.5785,2.5792,2.5746,2.5755,2.5729,2.5724,2.5708,2.571,2.5708,2.5658,2.5733,2.5851,2.5863,2.5706,2.5705,2.5704,0,2.6021,2.6008,2.6021,2.6012,2.5967,2.5975,2.5956,2.5928,2.5921,2.5906,2.5901,2.5887,2.5879,2.5868,2.5825,2.5795,2.5839,2.5789,2.5822,2.5824,2.5835,2.5835,2.5955,2.5831,2.583,2.583,2.583,0,2.6108,2.6126,2.6064,2.6072,2.6091,2.604,2.606,2.6036,2.6011,2.6014,2.5962,2.5966,2.5908,2.5906,2.5872,2.5885,2.5881,2.5865,2.5856,2.587,2.5872,2.5867,2.5861,2.5833,2.5832,2.5832,2.5831,0,2.6217,2.6176,2.6187,2.6144,2.6134,2.615,2.6113,2.6119,2.6089,2.6093,2.6091,2.6043,2.6038,2.5993,2.5977,2.5954,2.598,2.5961,2.599,2.5984,2.602,2.6018,2.6142,2.6156,2.6022,2.6023,2.6024,0,2.6276,2.6289,2.6247,2.6246,2.623,2.6228,2.6222,2.6172,2.6168,2.6139,2.6149,2.6139,2.6129,2.6122,2.6086,2.6074,2.6054,2.6099,2.6052,2.6067,2.6056,2.6057,2.6058,2.6109,2.6111,2.6112,2.6113,0,2.6385,2.6364,2.6357,2.6343,2.6337,2.6324,2.6307,2.6309,2.6254,2.6252,2.6246,2.6238,2.6222,2.6213,2.6195,2.6175,2.6136,2.6128,2.6135,2.6151,2.6167,2.616,2.6018,2.6126,2.6124,2.6124,2.6123,2.6122,2.6471,2.648,2.6453,2.6447,2.643,2.6415,2.642,2.639,2.6384,2.6368,2.6339,2.6338,2.6311,2.6282,2.6266,2.6264,2.6241,2.6251,2.6254,2.6257,2.6265,2.6167,2.626,2.626,2.626,2.6259,2.6259,0,2.6578,2.6558,2.6553,2.6532,2.6528,2.6491,2.6471,2.647,2.6469,2.6448,2.644,2.6433,2.6424,2.6388,2.6375,2.638,2.6362,2.6379,2.6378,2.6375,2.6286,2.6282,2.6394,2.6394,2.6394,2.6394,2.6394,2.6394,2.6634,2.6648,2.6624,2.6629,2.6608,2.6607,2.6599,2.6585,2.6568,2.6564,2.6557,2.6533,2.6506,2.6491,2.6481,2.647,2.6469,2.6492,2.6476,2.6394,2.6381,2.6369,2.6364,2.6492,2.6492,2.6564,2.6565,2.6565]}]]